2017-008G

Last updated on Fri Mar 10 2017 00:15:03 GMT+0000 (Coordinated Universal Time)

1 41954U 17008G 17067.91128008 .00002682 00000-0 12295-3 0 9999 2 41954 97.5056 129.4781 0009857 172.2288 187.9053 15.21304877 3226
UTC large
Height (km)
Speed (km/s)
/
Latitude / Longitude
Inclination (degrees)
Orbital Period (minutes)
Azimuth
Elevation
Range (km)
Doppler Factor

Next 0 passes for location: London (51.5072 / 0.1276)

Sorry there are no passes over London.